| time (UTC) | temp F | wind direction | speed knots | gust knots | rain 1hr in | rain 24hr in | rain mn in | humidity % | barometer mb |
| 20260504170755 | 76 | 189 | 1.7 | 1.7 | 0.00 | 0.00 | 0.00 | 53 | 1001.7 |
| 20260504170252 | 76 | 229 | 4.3 | 5.2 | 0.00 | 0.00 | 0.00 | 51 | 1001.7 |
| 20260504160210 | 74 | 219 | 3.5 | 5.2 | 0.00 | 0.00 | 0.00 | 54 | 1002.0 |
| 20260504151139 | 72 | 218 | 4.3 | 6.1 | 0.00 | 0.00 | 0.00 | 58 | 1002.2 |
| 20260504150636 | 71 | 257 | 5.2 | 8.7 | 0.00 | 0.00 | 0.00 | 58 | 1002.5 |
| 20260504150133 | 71 | 198 | 4.3 | 5.2 | 0.00 | 0.00 | 0.00 | 58 | 1002.3 |
| 20260504141101 | 69 | 228 | 3.5 | 4.3 | 0.00 | 0.00 | 0.00 | 64 | 1003.1 |
| 20260504140558 | 69 | 214 | 2.6 | 2.6 | 0.00 | 0.00 | 0.00 | 66 | 1003.0 |
| 20260504130522 | 63 | 200 | 1.7 | 1.7 | 0.00 | 0.00 | 0.00 | 75 | 1003.5 |
| 20260504110409 | 52 | 208 | 0.0 | 0.0 | 0.00 | 0.00 | 0.00 | 88 | 1003.9 |
| 20260504100326 | 51 | 248 | 0.0 | 0.0 | 0.00 | 0.00 | 0.00 | 90 | 1004.5 |
| 20260504081720 | 53 | 223 | 0.9 | 0.9 | 0.00 | 0.00 | 0.00 | 81 | 1005.4 |
| 20260504081216 | 53 | 224 | 0.0 | 0.9 | 0.00 | 0.00 | 0.00 | 82 | 1005.6 |
| 20260504080712 | 53 | 217 | 0.0 | 0.0 | 0.00 | 0.00 | 0.00 | 82 | 1005.5 |
| 20260504080209 | 53 | 215 | 0.0 | 0.9 | 0.00 | 0.00 | 0.00 | 82 | 1005.8 |
| 20260504070137 | 57 | 250 | 0.0 | 0.0 | 0.00 | 0.00 | 0.00 | 72 | 1006.2 |
| 20260504050526 | 58 | 224 | 0.9 | 1.7 | 0.00 | 0.00 | 0.00 | 71 | 1006.9 |
| 20260504050023 | 58 | 221 | 0.0 | 0.9 | 0.00 | 0.00 | 0.00 | 66 | 1006.7 |
| 20260504045519 | 57 | 223 | 0.9 | 0.9 | 0.00 | 0.00 | 0.00 | 68 | 1006.3 |
| 20260504045015 | 58 | 239 | 0.0 | 0.0 | 0.00 | 0.00 | 0.00 | 68 | 1006.8 |
| 20260504044512 | 59 | 239 | 0.0 | 0.0 | 0.00 | 0.00 | 0.00 | 64 | 1006.7 |
| 20260504044009 | 59 | 240 | 0.0 | 0.0 | 0.00 | 0.00 | 0.00 | 65 | 1006.8 |
| 20260504043506 | 59 | 230 | 0.0 | 0.0 | 0.00 | 0.00 | 0.00 | 66 | 1006.8 |
| 20260504043004 | 59 | 249 | 0.0 | 0.0 | 0.00 | 0.00 | 0.00 | 62 | 1007.1 |
| 20260504042500 | 59 | 249 | 0.9 | 0.9 | 0.00 | 0.00 | 0.00 | 64 | 1006.8 |
| 20260504041957 | 60 | 249 | 0.0 | 0.0 | 0.00 | 0.00 | 0.00 | 63 | 1007.0 |
| 20260504041453 | 60 | 250 | 0.0 | 0.0 | 0.00 | 0.00 | 0.00 | 65 | 1006.9 |
| 20260504040949 | 61 | 251 | 0.9 | 0.9 | 0.00 | 0.00 | 0.00 | 61 | 1007.1 |
| 20260504040447 | 61 | 248 | 0.0 | 0.0 | 0.00 | 0.00 | 0.00 | 61 | 1007.2 |
| 20260504035943 | 61 | 248 | 0.0 | 0.9 | 0.00 | 0.00 | 0.00 | 59 | 1007.4 |
| 20260504035441 | 60 | 244 | 0.9 | 0.9 | 0.00 | 0.00 | 0.00 | 63 | 1007.6 |
| 20260504034937 | 60 | 227 | 0.0 | 0.0 | 0.00 | 0.00 | 0.00 | 65 | 1007.4 |
| 20260504034434 | 60 | 227 | 0.9 | 0.9 | 0.00 | 0.00 | 0.00 | 65 | 1007.4 |
| 20260504033931 | 62 | 234 | 0.0 | 0.0 | 0.00 | 0.00 | 0.00 | 60 | 1007.4 |
| 20260504033429 | 61 | 225 | 0.0 | 0.0 | 0.00 | 0.00 | 0.00 | 60 | 1007.7 |
| 20260504032926 | 61 | 224 | 0.0 | 0.0 | 0.00 | 0.00 | 0.00 | 63 | 1007.6 |
| 20260504032423 | 61 | 224 | 0.9 | 0.9 | 0.00 | 0.00 | 0.00 | 64 | 1007.6 |
| 20260504031919 | 62 | 224 | 0.9 | 0.9 | 0.00 | 0.00 | 0.00 | 63 | 1007.6 |
| 20260504031417 | 62 | 225 | 0.9 | 0.9 | 0.00 | 0.00 | 0.00 | 62 | 1007.8 |
| 20260504030913 | 64 | 231 | 0.9 | 0.9 | 0.00 | 0.00 | 0.00 | 57 | 1007.8 |
| 20260504030410 | 65 | 244 | 0.0 | 0.9 | 0.00 | 0.00 | 0.00 | 54 | 1007.9 |
| 20260504025906 | 65 | 248 | 1.7 | 1.7 | 0.00 | 0.00 | 0.00 | 53 | 1007.8 |
| 20260504025403 | 65 | 242 | 1.7 | 1.7 | 0.00 | 0.00 | 0.00 | 53 | 1007.9 |
| 20260504024900 | 64 | 247 | 1.7 | 1.7 | 0.00 | 0.00 | 0.00 | 54 | 1007.9 |
| 20260504024356 | 63 | 234 | 0.9 | 0.9 | 0.00 | 0.00 | 0.00 | 57 | 1007.7 |
| 20260504023854 | 63 | 232 | 0.9 | 0.9 | 0.00 | 0.00 | 0.00 | 58 | 1008.1 |
| 20260504023350 | 63 | 226 | 0.9 | 0.9 | 0.00 | 0.00 | 0.00 | 60 | 1007.8 |
| 20260504022846 | 62 | 225 | 0.0 | 0.0 | 0.00 | 0.00 | 0.00 | 61 | 1007.8 |
| 20260504022343 | 63 | 225 | 0.0 | 0.0 | 0.00 | 0.00 | 0.00 | 61 | 1007.8 |
| 20260504021839 | 63 | 226 | 0.0 | 0.0 | 0.00 | 0.00 | 0.00 | 60 | 1007.8 |
| 20260504021337 | 63 | 225 | 0.0 | 0.0 | 0.00 | 0.00 | 0.00 | 59 | 1007.9 |
| 20260504020834 | 63 | 219 | 0.0 | 0.0 | 0.00 | 0.00 | 0.00 | 60 | 1007.7 |
| 20260504020331 | 63 | 219 | 0.0 | 0.0 | 0.00 | 0.00 | 0.00 | 60 | 1007.8 |
| 20260504015826 | 64 | 220 | 0.9 | 0.9 | 0.00 | 0.00 | 0.00 | 61 | 1007.9 |
| 20260504015323 | 64 | 227 | 0.0 | 0.9 | 0.00 | 0.00 | 0.00 | 58 | 1008.1 |
| 20260504014819 | 64 | 216 | 0.0 | 0.9 | 0.00 | 0.00 | 0.00 | 60 | 1007.7 |
| 20260504014315 | 64 | 213 | 0.9 | 0.9 | 0.00 | 0.00 | 0.00 | 60 | 1007.6 |
| 20260504013813 | 64 | 223 | 0.0 | 0.0 | 0.00 | 0.00 | 0.00 | 58 | 1007.9 |
| 20260504013311 | 64 | 219 | 0.0 | 0.0 | 0.00 | 0.00 | 0.00 | 59 | 1007.9 |
| 20260504012807 | 66 | 218 | 0.9 | 0.9 | 0.00 | 0.00 | 0.00 | 60 | 1007.7 |
| 20260504012305 | 66 | 233 | 0.0 | 0.9 | 0.00 | 0.00 | 0.00 | 54 | 1008.0 |
| 20260504011802 | 67 | 237 | 0.0 | 0.9 | 0.00 | 0.00 | 0.00 | 53 | 1007.6 |
| 20260504011258 | 67 | 236 | 1.7 | 1.7 | 0.00 | 0.00 | 0.00 | 52 | 1007.8 |
| 20260504010754 | 67 | 251 | 0.9 | 0.9 | 0.00 | 0.00 | 0.00 | 52 | 1007.7 |
| 20260504010250 | 67 | 264 | 1.7 | 2.6 | 0.00 | 0.00 | 0.00 | 51 | 1007.6 |
| 20260504005747 | 68 | 244 | 2.6 | 2.6 | 0.00 | 0.00 | 0.00 | 51 | 1007.8 |
| 20260504005244 | 68 | 240 | 0.9 | 0.9 | 0.00 | 0.00 | 0.00 | 51 | 1007.7 |
| 20260504004742 | 68 | 248 | 0.9 | 1.7 | 0.00 | 0.00 | 0.00 | 50 | 1007.7 |
| 20260504004239 | 68 | 248 | 0.9 | 0.9 | 0.00 | 0.00 | 0.00 | 51 | 1007.7 |
| 20260504003735 | 68 | 251 | 1.7 | 1.7 | 0.00 | 0.00 | 0.00 | 50 | 1007.8 |
| 20260504003232 | 69 | 238 | 0.9 | 1.7 | 0.00 | 0.00 | 0.00 | 50 | 1007.9 |
| 20260504002729 | 69 | 238 | 0.9 | 1.7 | 0.00 | 0.00 | 0.00 | 49 | 1007.8 |
| 20260504002226 | 69 | 255 | 2.6 | 2.6 | 0.00 | 0.00 | 0.00 | 49 | 1007.8 |
| 20260504001724 | 69 | 257 | 3.5 | 4.3 | 0.00 | 0.00 | 0.00 | 49 | 1007.9 |
| 20260504001220 | 70 | 242 | 0.9 | 0.9 | 0.00 | 0.00 | 0.00 | 49 | 1007.7 |
| 20260504000717 | 70 | 271 | 1.7 | 1.7 | 0.00 | 0.00 | 0.00 | 49 | 1007.9 |
| 20260504000214 | 70 | 239 | 0.9 | 0.9 | 0.00 | 0.00 | 0.00 | 50 | 1007.4 |
| 20260503235713 | 70 | 269 | 3.5 | 5.2 | 0.00 | 0.00 | 0.00 | 48 | 1007.8 |
| 20260503235209 | 70 | 236 | 0.9 | 1.7 | 0.00 | 0.00 | 0.00 | 50 | 1007.5 |
| 20260503234707 | 70 | 254 | 0.9 | 1.7 | 0.00 | 0.00 | 0.00 | 50 | 1008.1 |
| 20260503234205 | 70 | 258 | 1.7 | 2.6 | 0.00 | 0.00 | 0.00 | 49 | 1007.8 |
| 20260503233701 | 70 | 236 | 0.9 | 0.9 | 0.00 | 0.00 | 0.00 | 48 | 1007.5 |
| 20260503233157 | 70 | 233 | 0.9 | 1.7 | 0.00 | 0.00 | 0.00 | 48 | 1007.9 |
| 20260503232654 | 71 | 240 | 0.9 | 0.9 | 0.00 | 0.00 | 0.00 | 48 | 1007.8 |
| 20260503232151 | 71 | 264 | 2.6 | 2.6 | 0.00 | 0.00 | 0.00 | 49 | 1007.8 |
| 20260503231650 | 71 | 269 | 1.7 | 1.7 | 0.00 | 0.00 | 0.00 | 47 | 1007.6 |
| 20260503231145 | 71 | 262 | 3.5 | 5.2 | 0.00 | 0.00 | 0.00 | 46 | 1008.2 |
| 20260503230642 | 71 | 281 | 3.5 | 5.2 | 0.00 | 0.00 | 0.00 | 48 | 1008.2 |
| 20260503230139 | 71 | 276 | 3.5 | 4.3 | 0.00 | 0.00 | 0.00 | 48 | 1008.0 |
| 20260503225637 | 71 | 263 | 2.6 | 4.3 | 0.00 | 0.00 | 0.00 | 48 | 1007.8 |
| 20260503225136 | 71 | 235 | 4.3 | 6.1 | 0.00 | 0.00 | 0.00 | 48 | 1008.0 |
| 20260503224634 | 71 | 263 | 2.6 | 2.6 | 0.00 | 0.00 | 0.00 | 50 | 1007.9 |
| 20260503224132 | 71 | 254 | 2.6 | 2.6 | 0.00 | 0.00 | 0.00 | 48 | 1007.7 |
| 20260503223630 | 71 | 244 | 2.6 | 2.6 | 0.00 | 0.00 | 0.00 | 49 | 1007.4 |
| 20260503223126 | 71 | 253 | 2.6 | 4.3 | 0.00 | 0.00 | 0.00 | 47 | 1007.2 |
| 20260503222623 | 71 | 259 | 6.1 | 7.0 | 0.00 | 0.00 | 0.00 | 48 | 1008.1 |
| 20260503222121 | 71 | 263 | 1.7 | 1.7 | 0.00 | 0.00 | 0.00 | 48 | 1008.1 |
| 20260503221619 | 71 | 250 | 6.1 | 7.0 | 0.00 | 0.00 | 0.00 | 47 | 1008.0 |
| 20260503221116 | 71 | 229 | 4.3 | 6.1 | 0.00 | 0.00 | 0.00 | 47 | 1007.9 |
| 20260503220613 | 72 | 230 | 2.6 | 4.3 | 0.00 | 0.00 | 0.00 | 50 | 1007.9 |
| 20260503220109 | 71 | 238 | 3.5 | 4.3 | 0.00 | 0.00 | 0.00 | 47 | 1008.0 |
| 20260503215607 | 72 | 242 | 2.6 | 2.6 | 0.00 | 0.00 | 0.00 | 48 | 1008.0 |
| 20260503215103 | 73 | 251 | 3.5 | 5.2 | 0.00 | 0.00 | 0.00 | 48 | 1008.1 |
| 20260503214602 | 72 | 259 | 5.2 | 7.0 | 0.00 | 0.00 | 0.00 | 47 | 1008.3 |
| 20260503214058 | 72 | 252 | 3.5 | 4.3 | 0.00 | 0.00 | 0.00 | 47 | 1007.9 |
| 20260503213556 | 71 | 272 | 4.3 | 6.1 | 0.00 | 0.00 | 0.00 | 47 | 1007.9 |
| 20260503213053 | 71 | 229 | 2.6 | 2.6 | 0.00 | 0.00 | 0.00 | 47 | 1007.8 |
| 20260503212550 | 71 | 273 | 5.2 | 7.0 | 0.00 | 0.00 | 0.00 | 46 | 1008.0 |
| 20260503212047 | 72 | 278 | 3.5 | 6.1 | 0.00 | 0.00 | 0.00 | 47 | 1007.9 |
| 20260503211545 | 71 | 271 | 4.3 | 7.0 | 0.00 | 0.00 | 0.00 | 46 | 1007.9 |
| 20260503211040 | 71 | 236 | 2.6 | 2.6 | 0.00 | 0.00 | 0.00 | 46 | 1008.0 |
| 20260503210537 | 71 | 231 | 5.2 | 6.1 | 0.00 | 0.00 | 0.00 | 47 | 1008.0 |
| 20260503210033 | 71 | 246 | 4.3 | 7.0 | 0.00 | 0.00 | 0.00 | 47 | 1008.2 |
| 20260503205530 | 71 | 264 | 2.6 | 2.6 | 0.00 | 0.00 | 0.00 | 48 | 1008.7 |
| 20260503205026 | 71 | 242 | 2.6 | 4.3 | 0.00 | 0.00 | 0.00 | 48 | 1008.3 |
| 20260503204523 | 71 | 243 | 4.3 | 6.1 | 0.00 | 0.00 | 0.00 | 48 | 1008.7 |
| 20260503204020 | 71 | 270 | 8.7 | 12.2 | 0.00 | 0.00 | 0.00 | 46 | 1008.6 |
| 20260503203517 | 71 | 240 | 5.2 | 7.0 | 0.00 | 0.00 | 0.00 | 48 | 1008.5 |
| 20260503203014 | 71 | 240 | 5.2 | 7.0 | 0.00 | 0.00 | 0.00 | 48 | 1008.7 |
| 20260503202512 | 71 | 253 | 2.6 | 2.6 | 0.00 | 0.00 | 0.00 | 51 | 1008.6 |
| 20260503202010 | 70 | 234 | 3.5 | 5.2 | 0.00 | 0.00 | 0.00 | 50 | 1008.5 |
| 20260503201508 | 70 | 257 | 2.6 | 4.3 | 0.00 | 0.00 | 0.00 | 49 | 1008.6 |
| 20260503201005 | 70 | 225 | 4.3 | 6.1 | 0.00 | 0.00 | 0.00 | 49 | 1008.8 |
| 20260503200501 | 70 | 198 | 4.3 | 6.1 | 0.00 | 0.00 | 0.00 | 49 | 1008.8 |
| 20260503195957 | 69 | 215 | 2.6 | 4.3 | 0.00 | 0.00 | 0.00 | 49 | 1008.7 |
| 20260503195455 | 69 | 212 | 4.3 | 6.1 | 0.00 | 0.00 | 0.00 | 51 | 1008.9 |
| 20260503194951 | 68 | 281 | 6.1 | 9.6 | 0.00 | 0.00 | 0.00 | 51 | 1009.3 |
| 20260503194449 | 68 | 262 | 3.5 | 4.3 | 0.00 | 0.00 | 0.00 | 51 | 1008.9 |
| 20260503193943 | 68 | 214 | 2.6 | 4.3 | 0.00 | 0.00 | 0.00 | 51 | 1009.0 |
| 20260503193439 | 68 | 248 | 4.3 | 6.1 | 0.00 | 0.00 | 0.00 | 51 | 1008.9 |
| 20260503192935 | 68 | 233 | 5.2 | 6.1 | 0.00 | 0.00 | 0.00 | 50 | 1008.7 |
| 20260503192432 | 68 | 238 | 6.1 | 7.8 | 0.00 | 0.00 | 0.00 | 51 | 1008.9 |
| 20260503191927 | 69 | 217 | 3.5 | 5.2 | 0.00 | 0.00 | 0.00 | 50 | 1009.0 |
| 20260503191425 | 69 | 241 | 7.0 | 9.6 | 0.00 | 0.00 | 0.00 | 51 | 1009.2 |
| 20260503190921 | 68 | 208 | 5.2 | 6.1 | 0.00 | 0.00 | 0.00 | 51 | 1009.0 |
| 20260503190419 | 68 | 218 | 2.6 | 4.3 | 0.00 | 0.00 | 0.00 | 52 | 1009.2 |
| 20260503185915 | 68 | 265 | 7.0 | 11.3 | 0.00 | 0.00 | 0.00 | 50 | 1009.3 |
| 20260503185412 | 68 | 247 | 4.3 | 6.1 | 0.00 | 0.00 | 0.00 | 52 | 1009.8 |
| 20260503184911 | 67 | 246 | 5.2 | 6.1 | 0.00 | 0.00 | 0.00 | 51 | 1009.7 |
| 20260503184408 | 67 | 253 | 7.0 | 12.2 | 0.00 | 0.00 | 0.00 | 51 | 1009.7 |
| 20260503183904 | 67 | 246 | 3.5 | 5.2 | 0.00 | 0.00 | 0.00 | 53 | 1010.0 |
| 20260503183401 | 67 | 212 | 7.8 | 9.6 | 0.00 | 0.00 | 0.00 | 51 | 1009.4 |
| 20260503182858 | 66 | 223 | 6.1 | 8.7 | 0.00 | 0.00 | 0.00 | 53 | 1009.3 |
| 20260503182357 | 66 | 239 | 4.3 | 6.1 | 0.00 | 0.00 | 0.00 | 52 | 1009.7 |
| 20260503181854 | 65 | 205 | 2.6 | 4.3 | 0.00 | 0.00 | 0.00 | 52 | 1009.8 |
| 20260503181351 | 65 | 220 | 2.6 | 2.6 | 0.00 | 0.00 | 0.00 | 53 | 1010.2 |
| 20260503180847 | 65 | 263 | 3.5 | 5.2 | 0.00 | 0.00 | 0.00 | 53 | 1009.7 |
| 20260503180345 | 65 | 258 | 3.5 | 5.2 | 0.00 | 0.00 | 0.00 | 52 | 1010.0 |
| 20260503175841 | 65 | 258 | 5.2 | 6.1 | 0.00 | 0.00 | 0.00 | 52 | 1010.4 |
| 20260503175340 | 65 | 258 | 4.3 | 5.2 | 0.00 | 0.00 | 0.00 | 53 | 1010.6 |
| 20260503174835 | 65 | 237 | 3.5 | 4.3 | 0.00 | 0.00 | 0.00 | 52 | 1010.5 |
| 20260503174333 | 64 | 243 | 3.5 | 4.3 | 0.00 | 0.00 | 0.00 | 53 | 1010.4 |
| 20260503173828 | 64 | 219 | 6.1 | 7.0 | 0.00 | 0.00 | 0.00 | 51 | 1009.6 |
| 20260503173325 | 64 | 221 | 5.2 | 7.0 | 0.00 | 0.00 | 0.00 | 52 | 1010.1 |
| 20260503172822 | 64 | 222 | 4.3 | 6.1 | 0.00 | 0.00 | 0.00 | 52 | 1010.8 |
| 20260503172320 | 65 | 271 | 4.3 | 7.0 | 0.00 | 0.00 | 0.00 | 51 | 1010.9 |
| 20260503171815 | 65 | 278 | 4.3 | 5.2 | 0.00 | 0.00 | 0.00 | 50 | 1011.0 |
| 20260503171312 | 64 | 210 | 5.2 | 6.1 | 0.00 | 0.00 | 0.00 | 51 | 1010.8 |